Abha, Saudi Arabia

6:19 PM AST on July 23, 2019 (GMT +0300)
Abha

Weather History for OEAB - May, 2019

Change the Weather History Date:

Saturday, May 4, 2019

  Actual Average Record
Temperature  
Mean Temperature 77 °F -  
Max Temperature 85 °F 81 °F 85 °F (2019)
Min Temperature 69 °F 58 °F 37 °F (1998)
Cooling Degree Days 12    
Growing Degree Days 27 (Base 50)    
Moisture  
Dew Point 39 °F    
Average Humidity 27    
Maximum Humidity 43    
Minimum Humidity 7    
Precipitation  
Precipitation 0.00 in - - ()
Sea Level Pressure  
Sea Level Pressure 30.25 in    
Wind  
Wind Speed 4 mph ()    
Max Wind Speed 17 mph    
Max Gust Speed 28 mph    
Visibility 5.9 miles    
Events      
Averages and records for this station are not official NWS values.
T = Trace of Precipitation, MM = Missing Value Source: Averaged Metar Reports

Daily Weather History Graph

Daily Weather History Graph

Search for Another Location

Airport or City:

Astronomy

May. 04, 2019 Rise Set
Actual Time 5:41 AM AST 6:31 PM AST
Civil Twilight 5:18 AM AST 6:54 PM AST
Nautical Twilight 4:51 AM AST 7:21 PM AST
Astronomical Twilight 4:23 AM AST 7:48 PM AST
Moon 5:23 AM AST (5/4) 6:10 PM AST (5/4)
Length of Visible Light 13h 36m
Length of Day
12h 50m
Waning Crescent, 0% of the Moon is Illuminated
May 4
Waning Crescent
May 5
New
May 12
First Quarter
May 19
Full
May 26
Last Quarter

Hourly Weather History & Observations

Time (AST) Temp. Dew Point Humidity Pressure Visibility Wind Dir Wind Speed Gust Speed Precip Events Conditions
12:00 AM 68.0 °F 44.6 °F 43% 30.24 in 6.2 mi South 3.5 mph - N/A   Partly Cloudy
1:00 AM 69.8 °F 46.4 °F 43% 30.24 in 6.2 mi Calm Calm - N/A   Scattered Clouds
2:00 AM 68.0 °F 41.0 °F 37% 30.21 in 6.2 mi Calm Calm - N/A   Partly Cloudy
3:00 AM 69.8 °F 41.0 °F 35% 30.21 in 6.2 mi WSW 4.6 mph - N/A   Partly Cloudy
4:00 AM 71.6 °F 37.4 °F 29% 30.21 in 6.2 mi South 3.5 mph - N/A   Scattered Clouds
5:00 AM 66.2 °F 39.2 °F 37% 30.21 in 6.2 mi Calm Calm - N/A   Scattered Clouds
6:00 AM 66.2 °F 37.4 °F 35% 30.21 in 6.2 mi South 4.6 mph - N/A   Scattered Clouds
7:00 AM 68.0 °F 39.2 °F 35% 30.24 in 6.2 mi Calm Calm - N/A   Scattered Clouds
8:00 AM 75.2 °F 37.4 °F 25% 30.27 in - South 3.5 mph - N/A   Clear
9:00 AM 76 °F 37 °F 15%  in 6 mi Calm Calm - -  
9:00 AM 77.0 °F 37.4 °F 24% 30.27 in - Calm Calm - N/A   Clear
10:00 AM 82.4 °F 33.8 °F 17% 30.27 in - East 4.6 mph - N/A   Clear
11:00 AM 82.4 °F 39.2 °F 21% 30.27 in 6.2 mi South 4.6 mph - N/A   Scattered Clouds
12:00 PM 84.2 °F 35.6 °F 18% 30.27 in 6.2 mi SSW 10.4 mph - N/A   Partly Cloudy
1:00 PM 84.2 °F 39.2 °F 20% 30.24 in 6.2 mi South 9.2 mph - N/A   Partly Cloudy
2:00 PM 84.2 °F 35.6 °F 18% 30.24 in 6.2 mi SSE 13.8 mph - N/A   Partly Cloudy
3:00 PM 85 °F 32 °F 7%  in 6 mi South 9.2 mph - -   Partly Cloudy
3:00 PM 84.2 °F 32.0 °F 15% 30.21 in 6.2 mi South 9.2 mph - N/A   Partly Cloudy
4:00 PM 82.4 °F 28.4 °F 14% 30.21 in 6.2 mi SSW 16.1 mph - N/A   Partly Cloudy
5:00 PM 82.4 °F 35.6 °F 19% 30.21 in 6.2 mi SSW 17.3 mph - N/A   Partly Cloudy
7:00 PM 75.2 °F 46.4 °F 36% 30.24 in 6.2 mi South 8.1 mph - N/A   Partly Cloudy
8:00 PM 73.4 °F 42.8 °F 33% 30.27 in 6.2 mi SE 3.5 mph - N/A   Partly Cloudy
9:00 PM 73.4 °F 46.4 °F 38% 30.30 in - NNE 16.1 mph - N/A   Clear
10:00 PM 69.8 °F 41.0 °F 35% 30.33 in 3.1 mi NNE 12.7 mph 27.6 mph N/A   Widespread Dust
11:00 PM 69.8 °F 41.0 °F 35% 30.33 in 3.1 mi NNE 11.5 mph - N/A   Widespread Dust